TimeEST,TemperatureF,Dew PointF,Humidity,Sea Level PressureIn,VisibilityMPH,Wind Direction,Wind SpeedMPH,Gust SpeedMPH,PrecipitationIn,Events,Conditions,WindDirDegrees,DateUTC
12:51 AM,37.9,24.1,57,30.11,-9999.0,WSW,8.1,-,N/A,,Unknown,240,2012-12-14 05:51:00
1:51 AM,36.0,25.0,64,30.12,-9999.0,WSW,9.2,-,N/A,,Unknown,240,2012-12-14 06:51:00
2:51 AM,36.0,25.0,64,30.13,-9999.0,Variable,5.8,-,N/A,,Unknown,0,2012-12-14 07:51:00
3:51 AM,35.1,26.1,70,30.13,-9999.0,WSW,6.9,-,N/A,,Unknown,240,2012-12-14 08:51:00
4:51 AM,34.0,26.1,73,30.14,-9999.0,Variable,6.9,-,N/A,,Unknown,0,2012-12-14 09:51:00
5:51 AM,33.1,26.1,75,30.16,-9999.0,WSW,6.9,-,N/A,,Unknown,240,2012-12-14 10:51:00
6:51 AM,32.0,27.0,82,30.18,-9999.0,WSW,5.8,-,N/A,,Unknown,250,2012-12-14 11:51:00
7:51 AM,30.9,26.1,82,30.19,-9999.0,WSW,4.6,-,N/A,,Unknown,240,2012-12-14 12:51:00
8:51 AM,32.0,28.0,85,30.21,-9999.0,WSW,5.8,-,N/A,,Unknown,250,2012-12-14 13:51:00
9:51 AM,36.0,30.0,79,30.23,-9999.0,WNW,4.6,-,N/A,,Unknown,290,2012-12-14 14:51:00
10:51 AM,39.0,32.0,76,30.24,-9999.0,Calm,Calm,-,N/A,,Unknown,0,2012-12-14 15:51:00
11:51 AM,37.9,30.9,76,30.25,-9999.0,NW,3.5,-,N/A,,Unknown,310,2012-12-14 16:51:00
12:51 PM,39.0,30.9,73,30.25,-9999.0,Calm,Calm,-,N/A,,Unknown,0,2012-12-14 17:51:00
1:51 PM,39.9,30.9,70,30.24,-9999.0,Calm,Calm,-,N/A,,Unknown,0,2012-12-14 18:51:00
2:51 PM,37.9,30.0,73,30.25,-9999.0,Calm,Calm,-,N/A,,Unknown,0,2012-12-14 19:51:00
3:51 PM,37.0,30.9,79,30.23,-9999.0,NNE,6.9,-,N/A,,Unknown,30,2012-12-14 20:51:00
4:51 PM,37.0,30.0,76,30.25,-9999.0,NE,5.8,-,N/A,,Unknown,40,2012-12-14 21:51:00
5:51 PM,37.0,28.9,73,30.25,-9999.0,NE,4.6,-,N/A,,Unknown,40,2012-12-14 22:51:00
6:51 PM,37.0,28.9,73,30.25,-9999.0,ENE,8.1,-,N/A,,Unknown,70,2012-12-14 23:51:00
7:51 PM,37.0,30.0,76,30.27,-9999.0,ENE,3.5,-,N/A,,Unknown,70,2012-12-15 00:51:00
8:51 PM,37.0,30.0,76,30.27,-9999.0,East,8.1,-,N/A,,Unknown,90,2012-12-15 01:51:00
9:51 PM,37.0,30.0,76,30.26,-9999.0,East,5.8,-,N/A,,Unknown,90,2012-12-15 02:51:00
10:51 PM,37.0,30.9,79,30.25,-9999.0,ENE,9.2,-,N/A,,Unknown,70,2012-12-15 03:51:00
11:51 PM,37.0,30.9,79,30.23,-9999.0,East,10.4,-,N/A,,Unknown,80,2012-12-15 04:51:00